Regional Weather Roundup
Issued by NWS

Home | Current Version | Previous Version | Graphics & Text | Print | Product List | Glossary On
Versions: 1 2 3 4 5 6 7 8 9 10 11 12 13 14 15 16 17 18 19 20 21 22 23 24 25 26 27 28 29 30 31 32 33 34 35 36 37 38 39 40 41 42 43 44 45 46 47 48 49 50
000
ASUS45 KABQ 260401
RWRNM
NEW MEXICO REGIONAL WEATHER ROUNDUP
NATIONAL WEATHER SERVICE ALBUQUERQUE NM
1000 PM MDT THU AUG 25 2016

NOTE: "FAIR" MEANS FEW OR NO CLOUDS BELOW 12,000 FEET AGL WITH NO
       SIGNIFICANT WEATHER OR OBSTRUCTIONS TO VISION.

      THIS PRODUCT IS RELEASED AS TWO VERSIONS.  ONE VERSION NEAR
      THE TOP OF THE HOUR CONTAINING PRELIMINARY DATA FROM ALBUQUERQUE
      AND OTHER STATIONS.  A FINAL VERSION WITH ADDITIONAL DATA IS
      ISSUED ABOUT 10 MINUTES AFTER THE HOUR.

NMZ501-503-504-510>518-260500-
NORTHWEST PLATEAU/NORTHCENTRAL MOUNTAINS

CITY           SKY/WX    TMP DP  RH WIND       PRES   REMARKS
FARMINGTON     FAIR      62  44  51 NE10      30.24R
LOS ALAMOS     MOCLDY    62  44  50 SW8       30.31R
SANTA FE       FAIR      63  46  54 S7        30.24R
TAOS           MOCLDY    57  39  51 SE7       30.31R
ANGEL FIRE     FAIR      42  39  90 CALM      30.42S

$$
NMZ402-403-502-505>509-260500-
WESTCENTRAL MOUNTAINS/SOUTHWEST MOUNTAINS

CITY           SKY/WX    TMP DP  RH WIND       PRES   REMARKS
GALLUP         FAIR      59  46  62 N7        30.29R
GRANTS         FAIR      60  41  50 SW5       30.29R
SILVER CITY    FAIR      63  53  72 N9        30.18R

$$
NMZ407-409-411-412-260500-
SOUTHERN DESERTS

CITY           SKY/WX    TMP DP  RH WIND       PRES   REMARKS
DEMING         MOCLDY    75  54  47 E13       30.10R
LAS CRUCES     MOCLDY    71  54  54 SE5       30.14R
ALAMOGORDO     FAIR      72  48  43 S5        30.12R
T OR C         FAIR      75  45  34 VRB3      30.12R

$$
NMZ519>523-260500-
CENTRAL VALLEYS/CENTRAL HIGHLANDS

CITY           SKY/WX    TMP DP  RH WIND       PRES   REMARKS
ALBUQUERQUE    MOCLDY    72  48  42 E13       30.17R
DOUBLE EAGLE   PTCLDY    70  46  43 S6        30.21R
MORIARTY ARPT  FAIR      61  44  53 NW6       30.27R
CLINES CORNERS FAIR      58  45  62 E8        30.32R
BELEN          MOCLDY    72  40  31 NW5       30.18R
SOCORRO        FAIR      75  39  26 CALM      30.13S

$$
NMZ524>526-539-540-260500-
SOUTHCENTRAL MOUNTAINS

CITY           SKY/WX    TMP DP  RH WIND       PRES   REMARKS
RUIDOSO          N/A     59  50  72 CALM      30.31S

$$
NMZ527>531-260500-
NORTHEAST HIGHLANDS/NORTHEAST PLAINS

CITY           SKY/WX    TMP DP  RH WIND       PRES   REMARKS
LAS VEGAS      FAIR      54  46  74 E5        30.32R
RATON          MOCLDY    59  47  64 N6        30.29R
CLAYTON        CLOUDY    62  60  93 E6        30.25R

$$
NMZ532>537-260500-
EASTCENTRAL PLAINS

CITY           SKY/WX    TMP DP  RH WIND       PRES   REMARKS
TUCUMCARI      FAIR      66  60  81 E10       30.16R
CANNON AFB     NOT AVBL
CLOVIS AIRPORT CLOUDY    63  55  77 W7        30.22R

$$
NMZ028-029-538-260500-
SOUTHEAST PLAINS

CITY           SKY/WX    TMP DP  RH WIND       PRES   REMARKS
ROSWELL        FAIR      68  60  75 S12       30.12R
ARTESIA        FAIR      68  63  83 SE8G14    30.13S
CARLSBAD       FAIR      66  63  90 E5        30.11R
HOBBS          MOCLDY    66  66 100 E8        30.14S


$$




USA.gov is the U.S. government's official web portal to all federal, state and local government web resources and services.